Regional Weather Roundup
Issued by NWS

Home | Current Version | Previous Version | Text Only | Print | Product List | Glossary On
Versions: 1 2 3 4 5 6 7 8 9 10 11 12 13 14 15 16 17 18 19 20 21 22 23 24 25 26 27 28 29 30 31 32 33 34 35 36 37 38 39 40 41 42 43 44 45 46 47 48 49 50
000
ASUS43 KTOP 221259
RWRKS

WEATHER ROUNDUP FOR KANSAS
NATIONAL WEATHER SERVICE GOODLAND KS
800 AM CDT MON SEP 22 2014

NOTE:  "FAIR" INDICATES FEW OR NO CLOUDS BELOW 12,000 FEET WITH NO
SIGNIFICANT WEATHER AND/OR OBSTRUCTIONS TO VISIBILITY.

KSZ001>006-013>018-027>032-041>047-221400-
NORTHWEST KANSAS

CITY           SKY/WX    TMP DP  RH WIND       PRES   REMARKS
GOODLAND       CLEAR     50  43  77 S10       30.29F
HAYS           MOCLDY    54  45  71 SE6       30.32S
HILL CITY      CLEAR     55  45  68 S3        30.32R
RUSSELL        CLEAR     51  46  83 S7        30.31R
$$

KSZ061>065-074>080-084>089-221400-
SOUTHWEST KANSAS

CITY           SKY/WX    TMP DP  RH WIND       PRES   REMARKS
DODGE CITY     CLEAR     52  41  66 SE8       30.33S
ELKHART          N/A     57  46  66 SE10        N/A
GARDEN CITY    CLEAR     52  42  69 SE8       30.31S
GREAT BEND     CLEAR     50  45  81 S3        30.33R
LIBERAL        CLEAR     55  41  58 SE5       30.33S
$$

KSZ066>073-081>083-090>101-221400-
SOUTHEAST KANSAS

CITY           SKY/WX    TMP DP  RH WIND       PRES   REMARKS
CHANUTE        CLEAR     51  50  96 N3        30.32R
COFFEYVILLE    CLEAR     52  50  93 N3        30.30
HUTCHINSON     CLEAR     49  46  90 CALM      30.33R
NEWTON         CLEAR     54  43  66 E5        30.34R
PARSONS        CLEAR     49  47  93 CALM      30.32R
WICHITA INTL   PTCLDY    57  48  72 NE5       30.32R
WICHITA JABRA  CLEAR     51  47  86 CALM      30.32R
WINFIELD       CLEAR     51  48  89 N3        30.33R
$$

KSZ007>012-019>026-033>040-048>060-102>105-221400-
NORTHEAST KANSAS

CITY           SKY/WX    TMP DP  RH WIND       PRES   REMARKS
CONCORDIA      CLEAR     46  46 100 CALM      30.32S
EMPORIA        CLEAR     50  49  96 CALM      30.32R
LAWRENCE       CLEAR     47  45  93 CALM      30.32S
MANHATTAN      CLEAR     46  44  93 CALM      30.32S
OLATHE IND     CLEAR     51  50  96 CALM      30.32R
OLATHE EXE     CLEAR     53  50  89 NW3       30.31R
SALINA         CLEAR     51  46  83 CALM      30.33R
TOPEKA BILLARD CLEAR     49  49 100 CALM      30.33R
TOPEKA FORBES  CLEAR     49  47  93 CALM      30.32R
$$


USA.gov is the U.S. government's official web portal to all federal, state and local government web resources and services.